User: anonymous   Login
Location: Newark
(48.5156°N, 1.8989°W)
Time: 00:42:14
(UTC+00:00)
Language:

Transit 2A Rocket - Orbit

View from above orbital plane
View from above orbital plane
View from above satellite
View from above satellite

Ground track
Ground track

The orbit data is extracted from the following two-line orbital elements,

1    47U 60007C   19315.74972673 -.00000032  00000-0  17792-4 0  9994
2    47  66.6677  19.7715 0220553 103.7803 258.7952 14.42057683103596
Epoch (UTC): 11 November 2019 17:59:36
Eccentricity: 0.0220553
inclination: 66.6677°
perigee height: 594 km
apogee height: 909 km
right ascension of ascending node: 19.7715°
argument of perigee: 103.7803°
revolutions per day: 14.42057683
mean anomaly at epoch: 258.7952°
orbit number at epoch: 10359

The dashed part of the orbit path shows where the satellite is in the earth's shadow,  

DLR